This is the latest recevied weather packets stored in our database for station/object WW4HG. If no packets are shown the sender has not sent any weather packets the latest 10 day(s).
| Time | Temp. | Humidity | Pressure | Rain* | Wind** | Luminosity | Snow |
|---|---|---|---|---|---|---|---|
| 1778250633 | 17.78° C | 50% | 1019 hPa | 0 mm | - | 242 W/m² | - |
| 1778250330 | 17.78° C | 51% | 1019 hPa | 0 mm | - | 184 W/m² | - |
| 1778250027 | 17.78° C | 52% | 1018.7 hPa | 0 mm | - | 187 W/m² | - |
| 1778249723 | 17.78° C | 52% | 1018.4 hPa | 0 mm | - | 239 W/m² | - |
| 1778249421 | 17.22° C | 52% | 1018.4 hPa | 0 mm | - | 358 W/m² | - |
| 1778249118 | 17.22° C | 53% | 1019 hPa | 0 mm | - | 389 W/m² | - |
| 1778248814 | 16.67° C | 54% | 1018.7 hPa | 0 mm | - | 377 W/m² | - |
| 1778248510 | 16.67° C | 52% | 1018.7 hPa | 0 mm | - | 345 W/m² | - |
| 1778248207 | 16.67° C | 54% | 1018.7 hPa | 0 mm | - | 329 W/m² | - |
| 1778247903 | 16.11° C | 55% | 1018.7 hPa | 0 mm | - | 356 W/m² | - |
| 1778247600 | 16.11° C | 58% | 1018.4 hPa | 0 mm | - | 304 W/m² | - |
| 1778247297 | 16.11° C | 59% | 1018 hPa | 0 mm | - | 330 W/m² | - |
| 1778246994 | 15.56° C | 60% | 1018.4 hPa | 0 mm | - | 218 W/m² | - |
| 1778246692 | 15.56° C | 61% | 1018 hPa | 0 mm | - | 166 W/m² | - |
| 1778246389 | 15° C | 63% | 1018.4 hPa | 0 mm | - | 188 W/m² | - |
| 1778246084 | 15° C | 64% | 1018 hPa | 0 mm | - | 171 W/m² | - |
| 1778245781 | 15° C | 64% | 1018.4 hPa | 0 mm | - | 158 W/m² | - |
| 1778245478 | 14.44° C | 65% | 1018 hPa | 0 mm | - | 149 W/m² | - |
| 1778245173 | 14.44° C | 67% | 1018 hPa | 0 mm | - | 176 W/m² | - |
| 1778244870 | 13.89° C | 69% | 1018 hPa | 0 mm | - | 182 W/m² | - |
| 1778244567 | 13.89° C | 69% | 1018.4 hPa | 0 mm | - | 160 W/m² | - |
| 1778244260 | 13.89° C | 71% | 1018.4 hPa | 0 mm | - | 141 W/m² | - |
| 1778243958 | 13.33° C | 71% | 1018 hPa | 0 mm | - | 198 W/m² | - |
| 1778243656 | 13.33° C | 73% | 1017.7 hPa | 0 mm | - | 140 W/m² | - |
| 1778243352 | 13.33° C | 73% | 1018 hPa | 0 mm | - | 111 W/m² | - |
* Rain latest hour (hover to see other rain measurements)
** Current wind speed in m/s (hover to see current wind gust speed)